Printer-friendly version

IAU Minor Planet Center

Minor Planet Center

MPEC 2005-C39 : 2005 CS6

The following Minor Planet Electronic Circular may be linked-to from your own Web pages, but must not otherwise be redistributed electronically.


Read MPEC 2005-C38 Read MPEC 2005-C40


M.P.E.C. 2005-C39                                Issued 2005 Feb.  9, 21:36 UT

     The Minor Planet Electronic Circulars contain information on unusual
         minor planets and routine data on comets.  They are published
   on behalf of Commission 20 of the International Astronomical Union by the
          Minor Planet Center, Smithsonian Astrophysical Observatory,
                          Cambridge, MA 02138, U.S.A.

                  Supported in part by the Brinson Foundation
             Prepared using the Tamkin Foundation Computer Network

                              MPC@CFA.HARVARD.EDU
          URL http://cfa-www.harvard.edu/iau/mpc.html  ISSN 1523-6714

                                   2005 CS6

Additional Observations:
     K05C06S  C2005 02 09.22927 09 12 27.26 +11 53 04.4          19.0 R EC039699
     K05C06S  C2005 02 09.24388 09 12 25.26 +11 52 49.8                 EC039699
     K05C06S  C2005 02 09.25848 09 12 23.28 +11 52 33.6                 EC039699
     K05C06S  C2005 02 09.27307 09 12 21.33 +11 52 18.8                 EC039699
     K05C06S  C2005 02 09.86652 09 11 05.38 +11 41 44.3          19.2 V EC039198
     K05C06S  C2005 02 09.86864 09 11 05.10 +11 41 41.9          19.3 V EC039198
     K05C06S  C2005 02 09.86934 09 11 05.01 +11 41 41.1          19.3 V EC039198
     K05C06S  C2005 02 09.87005 09 11 04.91 +11 41 40.3          19.2 V EC039198
     K05C06S  C2005 02 09.87147 09 11 04.72 +11 41 38.7          19.3 V EC039198

Observer details:
198 Wildberg.  Observer R. Apitzsch.  0.35-m f/4.2 reflector + CCD.
699 Lowell Observatory-LONEOS.  Observer B. A. Skiff.  0.59-m LONEOS Schmidt
    + CCD.

Orbital elements:
2005 CS6
Epoch 2005 Jan. 30.0 TT = JDT 2453400.5                 MPC
M 331.51665              (2000.0)            P               Q
n   0.22618025     Peri.  267.84384     -0.67303521     +0.68210303
a   2.6678799      Node   314.98664     -0.40770515     -0.66471888
e   0.5567148      Incl.   23.84598     -0.61709004     -0.30476921
P   4.36           H   18.1           G   0.15
From 18 observations 2005 Feb. 2-9.

Ephemeris:
2005 CS6                 a,e,i = 2.67, 0.56, 24                  q = 1.1826
Date    TT    R. A. (2000) Decl.     Delta      r     Elong.  Phase     V
2005 02 09    09 12.94   +11 57.2    0.749    1.734   174.9     2.9    19.0
2005 02 19    08 50.96   +08 47.6    0.699    1.664   160.4    11.5    19.1
2005 03 01    08 29.75   +05 19.2    0.676    1.595   145.7    20.5    19.3
2005 03 11    08 12.35   +01 47.6    0.674    1.528   131.9    28.9    19.4
2005 03 21    08 00.69   -01 36.1    0.687    1.464   119.8    36.2    19.6
2005 03 31    07 55.28   -04 49.3    0.706    1.404   109.6    42.1    19.7
2005 04 10    07 55.75   -07 55.2    0.727    1.348   101.2    46.8    19.8
2005 04 20    08 01.52   -11 00.2    0.745    1.298    94.6    50.5    19.9
2005 04 30    08 11.95   -14 10.3    0.757    1.255    89.5    53.4    19.9
2005 05 10    08 26.72   -17 30.0    0.762    1.221    85.9    55.6    20.0
2005 05 20    08 45.83   -21 02.5    0.761    1.197    83.7    57.1    20.0
2005 05 30    09 09.60   -24 48.5    0.754    1.185    82.8    58.1    19.9
2005 06 09    09 38.81   -28 44.8    0.744    1.184    83.0    58.4    19.9
2005 06 19    10 14.59   -32 43.4    0.735    1.194    84.4    57.9    19.9
2005 06 29    10 57.98   -36 27.4    0.730    1.216    86.6    56.6    19.9
2005 07 09    11 49.39   -39 30.2    0.736    1.248    89.3    54.5    19.9
2005 07 19    12 47.29   -41 22.2    0.758    1.289    92.0    52.0    20.0
2005 07 29    13 47.61   -41 43.6    0.798    1.338    94.3    49.2    20.1
2005 08 08    14 45.42   -40 38.8    0.860    1.393    95.6    46.4    20.3
2005 08 18    15 37.25   -38 33.1    0.944    1.453    95.8    43.9    20.5
2005 08 28    16 22.06   -35 55.9    1.048    1.516    94.9    41.6    20.7
2005 09 07    17 00.51   -33 09.8    1.170    1.582    92.9    39.5    21.0
2005 09 17    17 33.86   -30 27.7    1.306    1.651    90.2    37.5    21.3
2005 09 27    18 03.26   -27 54.7    1.455    1.720    86.8    35.6    21.6
2005 10 07    18 29.70   -25 31.8    1.613    1.791    83.0    33.6    21.8
2005 10 17    18 53.91   -23 18.1    1.779    1.861    78.7    31.7    22.0

Timothy B. Spahr             (C) Copyright 2005 MPC           M.P.E.C. 2005-C39

Read MPEC 2005-C38 Read MPEC 2005-C40


Our Web policy. Index to the CBAT/MPC/ICQ pages.


Valid HTML 4.01!